STARLINK-1638 (46134 NORAD) Tracking and Keplerian Element Data

This shows tracking and keplerian element data for the satellite.

Feedback or suggestion? Click here.




ElementValue
Catalog46134
NameSTARLINK-1638
Epoch Orbit187
Epoch Day336.91667824
Epoch Year2020
RAAN284.2854
Inclination53.0003
Eccentricity0.0003699
Argument of Perigee8.4534
Mean Anonmoly222.5733
Mean Motion15.62709932
Decay Rate0.00040899
L11 46134U 20057T 20336.91667824 .00040899 00000-0 45090-3 0 9990
L22 46134 53.0003 284.2854 0003699 8.4534 222.5733 15.62709932 1879

Live tracking and technical data element details for STARLINK-1638 (NORAD 46134). STARLINK-1638 can be tracked NOW for your location showing map with azimuth and elevation plus other details from your city location.

Track the satellite on the map from your city or location and see movement details for azimuth, elevation, latitude, longitude, range, height, and movement on the map or in text.







IsCatalogInMostPopularTable: catalog: 46134, numindb: 16
Update: records affected: 1



GetName: 46134 STARLINK-1638

Hit Count: updated at: Thu, 03 Dec 2020 07:05:42 GMT